Change the Weather History Date:

Monday, November 5, 2012

  Actual Average (KADM) Record (KADM)
Temperature  
Mean Temperature 60 °F -  
Max Temperature 73 °F 63 °F 86 °F (2005)
Min Temperature 48 °F 46 °F 32 °F (2010)
Degree Days  
Heating Degree Days 4    
Growing Degree Days 10 (Base 50)    
Moisture  
Dew Point 42 °F    
Average Humidity 63    
Maximum Humidity 100    
Minimum Humidity 19    
Precipitation  
Precipitation 0.00 in - - ()
Sea Level Pressure  
Sea Level Pressure 30.07 in    
Wind  
Wind Speed 6 mph (NNW)    
Max Wind Speed 23 mph    
Max Gust Speed 31 mph    
Visibility 8 miles    
Events Fog    
Averages and records for this station are not official NWS values.
T = Trace of Precipitation, MM = Missing Value Source: NWS Daily Summary

Daily Weather History Graph

Daily Weather History Graph

Search for Another Location

Airport or City:

Trip Planner

Search our weather history database for the weather conditions in past years. The results will help you decide how hot, cold, wet, or windy it might be!

Date:

Astronomy

Nov. 05, 2012 Rise Set
Actual Time 6:49 AM CST 5:28 PM CST
Civil Twilight 6:23 AM CST 5:54 PM CST
Nautical Twilight 5:53 AM CST 6:24 PM CST
Astronomical Twilight 5:23 AM CST 6:53 PM CST
Moon 11:06 PM CST (11/5) 12:08 PM CST (11/5)
Length of Visible Light 11h 31m
Length of Day
10h 39m
Waning Gibbous, 62% of the Moon is Illuminated
Nov 5
Waning Gibbous
Nov 6
Last Quarter
Nov 13
New
Nov 20
First Quarter
Nov 28
Full

Hourly Weather History & Observations

Time (CST) Temp. Dew Point Humidity Pressure Visibility Wind Dir Wind Speed Gust Speed Precip Events Conditions
12:15 AM 51.8 °F 50.0 °F 94% 30.09 in 10.0 mi SE 3.5 mph - N/A   Clear
12:35 AM 51.8 °F 50.0 °F 94% 30.09 in 7.0 mi SE 3.5 mph - N/A   Clear
12:55 AM 50.0 °F 50.0 °F 100% 30.08 in 10.0 mi Calm Calm - N/A   Clear
1:35 AM 50.0 °F 50.0 °F 100% 30.09 in 7.0 mi Calm Calm - N/A   Clear
1:55 AM 50.0 °F 50.0 °F 100% 30.08 in 7.0 mi Calm Calm - N/A   Clear
2:15 AM 50.0 °F 50.0 °F 100% 30.08 in 5.0 mi Calm Calm - N/A   Clear
2:35 AM 50.0 °F 48.2 °F 94% 30.07 in 4.0 mi Calm Calm - N/A   Clear
2:55 AM 48.2 °F 48.2 °F 100% 30.07 in 3.0 mi Calm Calm - N/A   Clear
3:15 AM 48.2 °F 46.4 °F 93% 30.06 in 4.0 mi Calm Calm - N/A   Clear
3:55 AM 50.0 °F 50.0 °F 100% 30.06 in 1.5 mi Calm Calm - N/A   Mist
4:35 AM 50.0 °F 50.0 °F 100% 30.06 in 5.0 mi Calm Calm - N/A   Mostly Cloudy
4:55 AM 50.0 °F 50.0 °F 100% 30.06 in 4.0 mi Calm Calm - N/A   Mostly Cloudy
5:15 AM 50.0 °F 50.0 °F 100% 30.06 in 4.0 mi Calm Calm - N/A   Overcast
5:35 AM 51.8 °F 50.0 °F 94% 30.06 in 5.0 mi Calm Calm - N/A   Overcast
5:55 AM 51.8 °F 51.8 °F 100% 30.06 in 5.0 mi Calm Calm - N/A   Overcast
6:15 AM 51.8 °F 51.8 °F 100% 30.05 in 5.0 mi Calm Calm - N/A   Overcast
6:55 AM 51.8 °F 51.8 °F 100% 30.05 in 0.8 mi Calm Calm - N/A   Overcast
7:15 AM 51.8 °F 51.8 °F 100% 30.06 in 0.2 mi Calm Calm - N/A Fog Fog
7:35 AM 53.6 °F 51.8 °F 94% 30.07 in 0.2 mi Calm Calm - N/A Fog Fog
7:55 AM 53.6 °F 51.8 °F 94% 30.06 in 0.2 mi Calm Calm - N/A Fog Fog
8:15 AM 53.6 °F 53.6 °F 100% 30.07 in 0.2 mi Calm Calm - N/A Fog Fog
8:35 AM 53.6 °F 53.6 °F 100% 30.07 in 0.2 mi WSW 4.6 mph - N/A Fog Fog
8:55 AM 53.6 °F 53.6 °F 100% 30.08 in 0.5 mi West 3.5 mph - N/A Fog Fog
9:15 AM 55.4 °F 53.6 °F 94% 30.08 in 4.0 mi WNW 3.5 mph - N/A   Mostly Cloudy
9:55 AM 59.0 °F 51.8 °F 77% 30.09 in 10.0 mi NW 9.2 mph - N/A   Clear
10:15 AM 62.6 °F 48.2 °F 59% 30.08 in 10.0 mi NNW 8.1 mph - N/A   Clear
10:35 AM 64.4 °F 46.4 °F 52% 30.08 in 10.0 mi North 9.2 mph - N/A   Clear
10:55 AM 68.0 °F 44.6 °F 43% 30.08 in 10.0 mi NNW 17.3 mph 21.9 mph N/A   Clear
11:15 AM 68.0 °F 42.8 °F 40% 30.08 in 10.0 mi NNW 13.8 mph - N/A   Clear
11:35 AM 69.8 °F 41.0 °F 35% 30.06 in 10.0 mi NNW 15.0 mph - N/A   Clear
11:55 AM 71.6 °F 41.0 °F 33% 30.06 in 10.0 mi NNW 12.7 mph 18.4 mph N/A   Clear
12:15 PM 69.8 °F 41.0 °F 35% 30.06 in 10.0 mi NNW 10.4 mph - N/A   Clear
12:35 PM 68.0 °F 39.2 °F 35% 30.05 in 10.0 mi NNW 16.1 mph 19.6 mph N/A   Clear
12:55 PM 69.8 °F 41.0 °F 35% 30.04 in 10.0 mi NW 13.8 mph 18.4 mph N/A   Clear
1:15 PM 71.6 °F 41.0 °F 33% 30.03 in 10.0 mi NNW 16.1 mph 19.6 mph N/A   Clear
1:35 PM 71.6 °F 41.0 °F 33% 30.02 in 10.0 mi NNW 15.0 mph 20.7 mph N/A   Clear
1:55 PM 71.6 °F 41.0 °F 33% 30.01 in 10.0 mi NW 13.8 mph 20.7 mph N/A   Clear
2:35 PM 73.4 °F 32.0 °F 22% 30.00 in 10.0 mi NNW 21.9 mph 27.6 mph N/A   Clear
2:55 PM 73.4 °F 30.2 °F 20% 30.00 in 10.0 mi NW 23.0 mph 31.1 mph N/A   Clear
3:15 PM 73.4 °F 28.4 °F 19% 30.00 in 10.0 mi NW 17.3 mph 28.8 mph N/A   Clear
3:35 PM 71.6 °F 32.0 °F 23% 30.01 in 10.0 mi NNW 18.4 mph 26.5 mph N/A   Clear
3:55 PM 71.6 °F 28.4 °F 20% 30.02 in 10.0 mi NW 17.3 mph 23.0 mph N/A   Clear
4:15 PM 69.8 °F 26.6 °F 20% 30.02 in 10.0 mi NNW 17.3 mph 25.3 mph N/A   Clear
4:35 PM 69.8 °F 30.2 °F 23% 30.02 in 10.0 mi NNW 21.9 mph 27.6 mph N/A   Clear
4:55 PM 68.0 °F 30.2 °F 24% 30.03 in 10.0 mi NNW 16.1 mph 21.9 mph N/A   Clear
5:15 PM 66.2 °F 30.2 °F 26% 30.04 in 10.0 mi NNW 11.5 mph 21.9 mph N/A   Clear
5:35 PM 64.4 °F 32.0 °F 30% 30.04 in 10.0 mi NNW 11.5 mph - N/A   Clear
5:55 PM 62.6 °F 32.0 °F 32% 30.05 in 10.0 mi NNW 6.9 mph - N/A   Clear
6:15 PM 60.8 °F 32.0 °F 34% 30.05 in 10.0 mi NW 6.9 mph - N/A   Clear
6:35 PM 59.0 °F 32.0 °F 36% 30.06 in 10.0 mi NNW 6.9 mph - N/A   Clear
7:15 PM 59.0 °F 33.8 °F 39% 30.08 in 10.0 mi NNW 8.1 mph - N/A   Clear
7:55 PM 55.4 °F 37.4 °F 51% 30.09 in 10.0 mi NNW 6.9 mph - N/A   Clear
8:15 PM 55.4 °F 37.4 °F 51% 30.09 in 10.0 mi NNW 9.2 mph - N/A   Clear
8:35 PM 55.4 °F 39.2 °F 54% 30.09 in 10.0 mi NNW 11.5 mph - N/A   Clear
8:55 PM 53.6 °F 39.2 °F 58% 30.10 in 10.0 mi NNW 9.2 mph - N/A   Clear
9:15 PM 53.6 °F 39.2 °F 58% 30.11 in 10.0 mi NW 9.2 mph - N/A   Clear
9:35 PM 53.6 °F 39.2 °F 58% 30.11 in 10.0 mi North 6.9 mph - N/A   Clear
9:55 PM 51.8 °F 39.2 °F 62% 30.12 in 10.0 mi North 6.9 mph - N/A   Clear
10:15 PM 51.8 °F 39.2 °F 62% 30.12 in 10.0 mi North 10.4 mph - N/A   Clear
10:35 PM 51.8 °F 39.2 °F 62% 30.12 in 10.0 mi NNE 10.4 mph - N/A   Clear
11:15 PM 50.0 °F 37.4 °F 62% 30.12 in 10.0 mi NNE 6.9 mph - N/A   Clear
11:35 PM 50.0 °F 37.4 °F 62% 30.12 in 10.0 mi NNE 6.9 mph - N/A   Clear
11:55 PM 48.2 °F 37.4 °F 66% 30.11 in 10.0 mi NNE 4.6 mph - N/A   Clear